Location: Remedello Sotto
(45.2500°N, 10.3667°E)
Time: 10:04:26
(UTC+00:00)

Cosmos 2237 - Pass Details

Date: 03 February 2023
Orbit: 844 x 858 km, 70.8° (Epoch: 20 March)

Event Time Altitude Azimuth Distance (km) Brightness Sun altitude
Rises 17:13:06 0° 193° (SSW) 3,400 7.7 -8.3°
Reaches altitude 10° 17:15:33 10° 189° (S) 2,471 7.0 -8.7°
Maximum altitude 17:21:08 60° 111° (ESE) 970 4.3 -9.7°
Drops below altitude 10° 17:26:46 10° 33° (NNE) 2,496 6.2 -10.6°
Enters shadow 17:28:53 - 30° (NNE) 3,297 6.9 -11.0°
